Temp
-6 -7 -7 -6 -7 -8 -9 -8 -8 -8 -8 -9 -9 -9 -9 -10 -9 -9 -9 -11 -10 -9 -9 -9 -10 -9 -9 -10 -10 -11 -11 -11 -11 -12 -13 -13 -13 -13 -12 -12 -12 -12 -12 -11
-6 -7 -7 -7 -8 -9 -8 -8 -9 -9 -9 -9 -9 -9 -9 -10 -10 -9 -10 -8 -10 -9 -9 -10 -10 -10 -10 -10 -10 -10 -10 -10 -10 -10 -10 -11 -11 -11 -12 -12 -12 -12 -12 -12
-6 -6 -7 -8 -9 -8 -8 -8 -9 -9 -9 -8 -9 -10 -10 -10 -9 -9 -10 -9 -10 -9 -10 -10 -10 -10 -10 -9 -10 -11 -10 -10 -10 -10 -10 -10 -11 -12 -12 -13 -13 -13 -13 -13
-7 -8 -8 -8 -8 -8 -9 -9 -9 -8 -9 -9 -10 -10 -10 -9 -9 -10 -10 -10 -10 -11 -11 -11 -11 -10 -11 -11 -10 -11 -11 -11 -11 -11 -11 -11 -12 -12 -12 -13 -14 -14 -14 -14
-9 -9 -8 -8 -8 -8 -8 -7 -8 -8 -8 -9 -10 -10 -10 -9 -10 -9 -10 -9 -10 -10 -11 -11 -11 -11 -12 -11 -11 -11 -11 -11 -11 -11 -11 -11 -11 -12 -13 -15 -15 -15 -15 -15
-9 -9 -8 -8 -7 -8 -8 -8 -8 -8 -9 -9 -9 -10 -10 -10 -9 -9 -9 -9 -10 -11 -11 -11 -12 -12 -12 -11 -11 -11 -11 -11 -11 -11 -12 -13 -14 -15 -15 -15 -15 -16 -16 -16
-9 -9 -8 -7 -8 -8 -8 -8 -7 -9 -9 -10 -9 -9 -10 -9 -9 -10 -10 -10 -10 -10 -11 -11 -11 -11 -11 -11 -11 -11 -11 -11 -11 -12 -13 -15 -15 -16 -16 -16 -16 -16 -16 -16
-10 -9 -9 -8 -8 -7 -9 -9 -8 -8 -9 -9 -9 -9 -9 -10 -10 -10 -10 -10 -10 -11 -11 -11 -11 -11 -11 -11 -11 -11 -11 -12 -12 -13 -14 -15 -15 -15 -16 -16 -16 -17 -17 -17
-10 -10 -9 -8 -8 -8 -8 -9 -8 -9 -9 -9 -9 -9 -9 -9 -9 -9 -10 -10 -11 -11 -11 -11 -11 -11 -11 -11 -12 -12 -12 -12 -13 -15 -15 -15 -15 -16 -16 -16 -17 -17 -17 -17
-10 -9 -10 -9 -9 -8 -9 -9 -8 -8 -9 -9 -10 -10 -10 -10 -10 -10 -11 -11 -11 -11 -11 -11 -11 -11 -12 -12 -12 -12 -12 -13 -14 -16 -16 -16 -15 -16 -16 -17 -17 -17 -18 -18
-10 -9 -10 -10 -9 -9 -8 -8 -8 -9 -9 -9 -10 -10 -10 -10 -10 -10 -11 -11 -11 -11 -11 -11 -11 -12 -12 -12 -12 -12 -12 -13 -15 -16 -16 -16 -16 -16 -16 -17 -17 -18 -18 -18
-10 -9 -9 -9 -10 -10 -9 -9 -8 -9 -9 -10 -10 -10 -9 -9 -10 -11 -11 -11 -11 -11 -12 -11 -12 -12 -12 -12 -12 -12 -12 -13 -15 -15 -16 -16 -16 -17 -17 -17 -17 -18 -18 -18
-9 -9 -10 -9 -9 -10 -9 -8 -8 -9 -9 -9 -9 -10 -9 -10 -11 -11 -11 -11 -11 -11 -11 -12 -12 -12 -12 -12 -12 -12 -12 -13 -15 -15 -16 -16 -16 -17 -17 -17 -17 -18 -18 -18
-8 -9 -9 -10 -9 -9 -10 -8 -8 -9 -9 -8 -8 -9 -10 -10 -10 -11 -11 -11 -11 -11 -12 -12 -12 -12 -12 -12 -12 -12 -12 -14 -15 -15 -16 -17 -17 -17 -17 -17 -17 -18 -18 -18
-8 -9 -9 -10 -9 -9 -8 -8 -8 -9 -9 -8 -8 -9 -9 -10 -10 -11 -10 -11 -12 -11 -12 -12 -12 -12 -12 -12 -12 -12 -13 -14 -15 -16 -16 -16 -17 -17 -17 -17 -18 -18 -18 -18
-8 -9 -9 -9 -9 -9 -9 -9 -8 -9 -9 -9 -9 -9 -9 -10 -11 -11 -11 -11 -11 -11 -12 -12 -12 -12 -12 -12 -13 -13 -13 -14 -15 -15 -16 -16 -16 -17 -17 -17 -18 -18 -19 -19
-8 -9 -9 -9 -9 -9 -8 -9 -8 -9 -10 -9 -9 -10 -9 -10 -11 -11 -11 -11 -12 -12 -12 -12 -12 -12 -12 -13 -13 -13 -13 -13 -15 -15 -16 -16 -16 -16 -17 -17 -17 -18 -18 -19
-9 -9 -9 -9 -9 -9 -8 -9 -9 -8 -9 -9 -9 -10 -10 -10 -10 -10 -11 -11 -12 -12 -12 -12 -12 -12 -12 -13 -13 -13 -13 -13 -14 -15 -16 -16 -16 -16 -17 -17 -17 -18 -18 -18
-9 -9 -9 -9 -9 -9 -9 -9 -9 -9 -10 -9 -10 -9 -9 -10 -10 -10 -11 -11 -12 -12 -12 -12 -12 -12 -13 -13 -13 -13 -13 -13 -14 -15 -15 -16 -16 -16 -17 -17 -17 -17 -17 -18
-9 -9 -9 -10 -10 -9 -9 -10 -10 -9 -9 -10 -10 -10 -10 -9 -10 -10 -11 -11 -11 -12 -12 -12 -12 -12 -13 -13 -13 -13 -13 -13 -14 -14 -15 -15 -16 -16 -17 -17 -17 -17 -17 -17
-9 -9 -9 -10 -10 -8 -8 -10 -10 -9 -9 -10 -9 -10 -10 -10 -10 -10 -11 -11 -11 -12 -12 -12 -13 -13 -13 -13 -13 -14 -14 -14 -14 -14 -15 -15 -16 -17 -17 -16 -17 -17 -17 -17
-10 -10 -10 -10 -9 -8 -10 -10 -10 -10 -9 -10 -9 -10 -10 -10 -10 -10 -11 -12 -12 -12 -12 -13 -13 -13 -13 -13 -14 -14 -14 -14 -14 -14 -15 -15 -16 -17 -17 -17 -17 -17 -17 -17
-10 -10 -10 -9 -9 -10 -9 -10 -10 -10 -9 -10 -10 -10 -10 -10 -10 -10 -11 -11 -12 -12 -12 -12 -13 -13 -13 -13 -14 -14 -14 -14 -14 -14 -15 -15 -16 -16 -17 -18 -18 -17 -17 -17
-10 -10 -9 -9 -10 -10 -10 -10 -10 -10 -10 -10 -10 -10 -10 -10 -10 -10 -11 -11 -12 -12 -12 -13 -13 -13 -13 -14 -14 -14 -14 -15 -15 -15 -15 -15 -16 -16 -17 -17 -18 -18 -18 -18
-10 -10 -10 -10 -10 -10 -10 -10 -10 -10 -10 -10 -10 -10 -10 -10 -10 -11 -11 -11 -11 -12 -12 -13 -13 -13 -13 -14 -14 -14 -14 -15 -15 -15 -15 -15 -16 -16 -17 -17 -18 -18 -18 -18
-10 -10 -10 -10 -10 -10 -10 -10 -10 -10 -10 -10 -10 -10 -10 -10 -10 -11 -11 -11 -11 -12 -12 -13 -13 -13 -13 -14 -14 -15 -15 -15 -15 -15 -15 -15 -15 -16 -16 -17 -18 -18 -18 -18
Height
5894 5895 5896 5897 5894 5893 5896 5902 5900 5898 5896 5894 5892 5889 5882 5862 5878 5869 5872 5863 5863 5870 5861 5858 5849 5849 5842 5835 5828 5819 5811 5808 5803 5797 5791 5785 5777 5772 5767 5763 5759 5757 5754 5753
5892 5892 5894 5893 5893 5898 5900 5903 5900 5893 5893 5891 5889 5888 5882 5875 5871 5874 5868 5866 5865 5865 5862 5853 5847 5844 5838 5832 5827 5818 5809 5800 5793 5783 5778 5772 5764 5755 5750 5747 5742 5740 5740 5738
5890 5890 5890 5893 5896 5898 5901 5902 5901 5901 5895 5891 5886 5882 5883 5881 5879 5876 5870 5865 5863 5859 5853 5844 5839 5829 5823 5817 5810 5802 5794 5786 5776 5767 5758 5751 5746 5741 5735 5729 5724 5718 5715 5714
5887 5886 5891 5895 5896 5896 5897 5896 5897 5896 5894 5890 5886 5883 5878 5876 5873 5871 5867 5861 5851 5844 5841 5834 5828 5820 5815 5807 5799 5790 5781 5773 5765 5755 5746 5736 5728 5720 5715 5710 5707 5702 5698 5693
5885 5888 5891 5892 5893 5893 5894 5894 5893 5893 5891 5887 5884 5880 5875 5874 5871 5869 5863 5855 5849 5842 5836 5830 5823 5816 5807 5801 5791 5784 5777 5769 5760 5751 5741 5732 5722 5712 5705 5699 5694 5690 5684 5682
5884 5887 5889 5889 5890 5891 5892 5893 5891 5889 5886 5885 5880 5878 5871 5871 5870 5865 5859 5854 5845 5841 5833 5826 5818 5811 5803 5797 5791 5783 5774 5765 5755 5744 5734 5724 5715 5708 5701 5693 5686 5679 5675 5670
5885 5885 5887 5888 5888 5888 5889 5888 5887 5886 5883 5882 5878 5875 5869 5867 5864 5858 5854 5850 5846 5838 5831 5824 5816 5808 5802 5795 5787 5779 5770 5758 5747 5736 5726 5716 5707 5699 5692 5687 5679 5673 5668 5662
5885 5885 5886 5887 5886 5886 5886 5885 5884 5883 5884 5879 5877 5872 5871 5864 5860 5856 5851 5848 5842 5833 5827 5821 5813 5807 5800 5792 5784 5775 5766 5755 5743 5731 5720 5711 5703 5695 5687 5679 5672 5666 5660 5655
5881 5880 5884 5882 5884 5885 5884 5882 5883 5882 5882 5878 5874 5871 5866 5864 5858 5853 5849 5844 5838 5833 5827 5819 5812 5806 5799 5791 5782 5771 5761 5750 5738 5725 5714 5706 5698 5690 5681 5672 5664 5657 5651 5645
5878 5879 5881 5881 5882 5881 5882 5879 5880 5880 5879 5875 5871 5868 5866 5864 5857 5853 5849 5843 5836 5831 5826 5820 5813 5806 5798 5790 5780 5769 5757 5745 5732 5721 5711 5703 5693 5684 5675 5666 5657 5649 5642 5637
5876 5877 5879 5879 5877 5877 5877 5876 5876 5879 5877 5877 5870 5866 5864 5864 5860 5855 5849 5843 5837 5831 5825 5819 5812 5805 5797 5788 5778 5768 5755 5741 5727 5718 5708 5698 5688 5678 5668 5659 5651 5644 5637 5632
5872 5875 5875 5877 5876 5876 5875 5873 5872 5873 5874 5873 5868 5864 5861 5858 5855 5851 5845 5838 5834 5829 5822 5817 5810 5803 5795 5787 5778 5766 5753 5738 5726 5716 5706 5696 5685 5675 5665 5657 5648 5640 5634 5629
5869 5872 5874 5874 5874 5873 5870 5870 5871 5871 5867 5864 5864 5862 5859 5859 5853 5848 5842 5835 5832 5827 5821 5816 5811 5803 5795 5786 5776 5765 5752 5738 5726 5716 5705 5693 5683 5673 5664 5656 5647 5640 5633 5627
5867 5870 5871 5869 5869 5870 5869 5867 5867 5867 5863 5860 5861 5861 5858 5854 5849 5844 5839 5834 5830 5826 5820 5815 5809 5801 5793 5785 5775 5765 5752 5738 5727 5716 5705 5695 5685 5675 5666 5658 5650 5642 5634 5627
5864 5865 5866 5867 5865 5865 5864 5864 5864 5864 5860 5858 5856 5857 5854 5850 5847 5842 5836 5830 5826 5822 5818 5813 5807 5800 5792 5784 5775 5764 5753 5740 5729 5718 5709 5699 5690 5680 5671 5662 5653 5645 5637 5629
5861 5862 5862 5862 5863 5862 5862 5862 5860 5861 5856 5857 5856 5855 5852 5849 5844 5837 5831 5826 5823 5820 5816 5811 5805 5798 5791 5783 5774 5765 5754 5742 5732 5722 5713 5704 5694 5685 5675 5666 5656 5647 5639 5632
5858 5858 5858 5859 5859 5860 5860 5859 5858 5860 5856 5853 5851 5850 5848 5844 5840 5833 5829 5825 5821 5817 5814 5810 5804 5797 5790 5782 5774 5765 5755 5745 5734 5725 5716 5708 5698 5689 5680 5669 5660 5652 5644 5636
5855 5855 5855 5855 5856 5856 5857 5856 5854 5855 5855 5853 5849 5845 5846 5842 5838 5832 5826 5823 5819 5815 5812 5808 5802 5796 5789 5782 5773 5765 5756 5746 5737 5728 5719 5711 5702 5693 5683 5673 5665 5656 5648 5642
5851 5852 5852 5853 5853 5854 5853 5855 5852 5853 5853 5850 5847 5842 5840 5839 5835 5829 5824 5821 5817 5813 5810 5805 5800 5794 5788 5781 5773 5765 5756 5748 5739 5730 5722 5714 5705 5697 5688 5679 5670 5662 5654 5647
5848 5849 5851 5851 5850 5848 5853 5852 5850 5851 5850 5847 5845 5841 5835 5833 5832 5828 5823 5819 5816 5811 5808 5803 5798 5793 5787 5780 5772 5765 5757 5748 5740 5732 5724 5716 5709 5701 5693 5685 5676 5668 5661 5654
5845 5846 5848 5847 5846 5847 5849 5850 5849 5848 5850 5845 5842 5839 5835 5831 5828 5824 5819 5816 5813 5810 5805 5801 5796 5792 5785 5779 5772 5765 5757 5749 5742 5734 5726 5717 5710 5704 5697 5689 5681 5674 5667 5660
5841 5843 5844 5844 5843 5845 5847 5847 5847 5846 5844 5841 5838 5837 5834 5830 5825 5821 5816 5814 5812 5808 5804 5800 5796 5790 5784 5778 5771 5765 5758 5751 5743 5735 5728 5720 5712 5706 5699 5693 5686 5679 5672 5666
5839 5840 5841 5843 5842 5843 5844 5844 5844 5841 5841 5839 5836 5834 5831 5827 5824 5819 5815 5812 5810 5807 5802 5798 5794 5789 5783 5777 5772 5765 5759 5752 5745 5737 5729 5722 5715 5708 5701 5695 5689 5684 5677 5671
5834 5835 5836 5839 5840 5839 5841 5841 5840 5839 5838 5836 5834 5831 5828 5825 5822 5817 5813 5810 5807 5804 5801 5797 5793 5788 5783 5777 5772 5766 5759 5753 5747 5739 5732 5724 5717 5710 5703 5696 5691 5687 5682 5677
5831 5833 5834 5836 5836 5837 5838 5837 5837 5836 5835 5834 5831 5829 5826 5823 5819 5815 5812 5808 5804 5802 5798 5795 5791 5786 5782 5776 5771 5765 5759 5754 5747 5741 5734 5727 5720 5712 5706 5698 5693 5689 5685 5681
5827 5830 5831 5831 5833 5835 5834 5834 5835 5833 5832 5831 5829 5826 5823 5821 5817 5814 5810 5805 5802 5799 5796 5792 5788 5783 5779 5775 5769 5764 5759 5754 5748 5742 5736 5729 5722 5715 5707 5699 5694 5690 5687 5684
Wind_Speed
10 10 10 6 7 6 9 3 14 17 25 27 26 35 32 39 29 28 11 16 41 36 33 21 38 40 40 46 47 48 50 47 49 45 43 42 46 46 47 47 48 46 46 45
10 13 12 6 3 12 5 7 14 17 22 28 36 24 30 33 28 28 20 27 31 34 25 36 45 44 39 38 39 42 46 48 47 51 51 50 50 52 53 53 51 51 50 49
15 12 8 3 12 9 5 8 13 18 27 35 22 28 25 25 31 21 26 37 29 38 42 43 47 48 50 50 53 53 53 56 58 59 61 62 60 59 58 56 53 52 48 47
8 2 7 11 9 8 12 14 19 17 19 17 19 30 31 30 34 30 36 36 28 45 54 53 53 51 54 56 54 49 45 45 46 47 47 48 49 51 51 52 50 49 49 48
6 15 8 11 13 4 15 6 4 8 11 7 20 24 32 30 29 33 41 31 46 51 57 55 52 55 57 47 39 42 41 45 47 47 47 46 44 45 45 44 45 44 44 43
14 19 18 18 8 6 8 5 6 8 15 15 23 22 29 30 33 38 25 42 47 54 54 53 56 56 45 38 36 42 44 47 51 53 53 52 49 46 42 41 40 39 38 37
10 8 10 8 6 8 10 8 8 4 8 17 23 23 26 32 38 27 43 44 50 50 49 53 49 32 35 36 37 43 48 52 56 58 57 52 47 44 41 37 35 33 33 34
8 12 13 5 7 12 5 12 7 1 2 16 16 23 29 29 24 45 46 48 48 47 51 46 32 34 35 38 42 46 49 52 56 55 51 40 42 43 42 39 36 34 32 27
10 17 15 16 9 11 13 15 5 5 3 10 18 23 27 32 39 42 45 47 46 46 42 28 31 33 36 41 43 48 51 56 57 51 42 41 43 44 43 40 38 36 32 29
15 18 17 19 11 9 11 16 8 7 12 13 14 21 28 29 36 42 42 42 42 42 26 27 29 34 38 40 43 47 51 55 55 43 40 42 42 44 43 40 37 36 32 27
22 15 12 9 9 12 14 13 13 8 12 12 23 28 29 31 35 34 38 36 36 23 26 27 29 33 36 41 44 48 53 54 46 41 42 41 43 45 43 40 36 34 30 26
31 22 17 8 11 9 12 19 20 15 17 17 20 28 30 28 31 32 32 33 27 26 26 28 31 34 37 42 46 50 54 53 46 42 44 43 46 42 38 35 34 31 29 26
31 30 22 20 19 17 24 17 9 13 16 19 23 26 24 24 25 27 29 33 23 20 25 26 28 33 38 42 46 49 54 53 44 44 48 45 40 37 34 32 31 28 29 27
16 25 26 30 25 21 18 16 14 13 16 18 20 20 22 22 25 26 30 30 17 19 23 25 29 34 38 43 45 49 53 51 44 47 45 41 39 37 36 34 33 31 31 29
17 18 19 29 27 23 20 19 16 10 14 18 22 20 21 22 22 26 29 27 20 21 23 26 30 35 38 43 43 48 51 49 45 42 40 39 40 40 39 39 36 34 32 31
13 13 19 23 21 21 19 18 17 11 17 15 18 18 18 20 20 27 30 21 17 19 23 25 30 35 37 39 41 45 49 48 42 37 39 39 39 39 40 39 37 36 32 28
11 10 14 16 18 16 18 13 14 5 13 19 19 20 21 21 22 27 26 17 18 20 22 25 29 33 34 35 39 43 46 49 41 34 36 39 39 39 42 40 38 37 34 30
10 10 11 14 12 14 10 10 14 12 9 15 16 20 19 18 20 24 21 16 18 18 21 23 29 33 33 33 37 40 43 46 41 34 33 36 39 39 42 41 39 37 36 32
11 13 13 12 12 12 15 13 15 11 8 14 15 20 22 18 19 23 17 14 17 17 19 24 28 32 33 33 35 37 39 42 42 36 33 34 36 39 41 41 38 36 36 35
12 12 13 13 13 15 0 8 12 13 9 15 16 17 23 22 19 21 13 11 16 17 20 24 28 31 32 33 32 34 36 37 39 38 35 34 35 37 39 40 38 35 35 35
15 18 15 14 16 15 12 13 13 16 13 13 16 16 19 21 21 23 18 13 17 20 20 22 27 31 31 31 32 32 33 35 36 37 36 35 33 34 34 36 37 34 33 34
17 16 16 16 18 16 12 13 13 14 12 14 16 16 17 19 19 21 19 12 16 19 17 21 25 30 30 31 33 32 31 31 33 34 35 34 33 31 31 32 33 33 31 32
14 15 15 14 16 11 11 11 12 13 13 13 15 17 17 18 18 19 19 12 14 16 19 21 25 30 29 30 32 31 30 29 31 32 33 34 34 32 30 29 30 30 30 30
16 17 16 14 11 9 12 11 11 11 13 13 15 17 17 17 17 18 19 14 14 17 20 22 26 28 28 29 31 30 29 29 29 31 32 34 34 34 31 28 26 27 28 28
18 15 14 13 12 10 12 11 10 10 11 12 15 16 16 17 17 17 18 17 16 18 21 23 26 27 27 27 29 28 28 29 29 30 31 32 33 35 34 30 24 22 23 25
10 9 12 11 11 11 11 11 10 11 11 12 13 15 16 16 16 16 17 18 19 19 20 22 25 25 25 25 25 26 27 28 27 28 29 31 32 34 38 35 21 18 19 21
Wind_Direction
197 167 162 174 67 41 343 254 334 290 285 297 301 309 344 12 344 323 326 5 350 340 315 317 345 336 336 332 329 323 319 317 316 309 302 298 296 296 295 295 294 292 289 285
198 176 195 140 129 253 292 188 285 292 288 292 299 320 334 345 345 340 315 301 331 345 355 334 331 326 326 321 316 310 309 310 304 299 300 300 298 296 297 297 296 292 288 286
203 168 109 39 256 260 147 220 270 258 275 286 309 313 321 313 329 334 335 326 318 340 343 337 330 332 331 333 332 326 318 314 312 311 308 305 304 303 302 301 300 299 295 290
172 106 260 260 277 211 179 227 234 275 283 290 304 302 301 320 332 333 322 325 295 345 340 338 337 332 334 335 330 332 341 339 338 337 330 322 316 308 304 302 302 300 297 295
107 279 269 281 227 216 210 319 227 317 318 314 299 304 305 314 314 322 328 337 337 341 336 336 331 333 339 340 353 349 347 344 341 339 336 330 325 322 320 316 311 307 302 297
162 245 247 247 203 197 261 218 228 12 328 352 331 310 298 306 319 325 334 336 339 335 333 330 331 339 339 347 346 344 346 342 341 338 333 327 326 326 324 321 319 315 311 306
186 284 254 240 215 213 240 252 271 5 8 306 306 294 297 309 321 338 333 336 332 330 328 331 340 346 347 345 342 343 344 341 340 335 329 331 333 331 328 324 318 312 308 302
216 292 317 228 238 274 201 273 314 323 335 310 289 294 311 319 327 322 326 328 331 329 332 339 346 349 349 345 345 341 343 340 337 331 335 338 337 334 331 326 320 314 311 313
212 232 248 263 285 282 253 274 291 270 247 292 296 298 307 313 315 319 325 325 326 328 340 348 339 343 346 346 344 344 342 342 336 337 337 337 337 334 332 333 328 324 317 307
201 186 218 258 295 264 239 268 264 278 216 285 299 298 303 313 314 315 321 320 324 333 344 340 339 343 345 346 342 342 343 341 339 342 339 338 338 338 338 336 334 335 331 317
204 198 189 249 253 255 265 280 305 304 260 280 274 283 290 295 299 309 312 318 325 337 334 339 345 347 348 349 346 346 345 345 346 347 345 340 338 337 338 339 338 340 340 338
210 210 209 237 252 260 258 268 288 293 283 282 263 274 288 309 321 311 316 320 331 332 328 337 346 350 352 352 350 348 350 350 351 351 346 341 341 340 341 345 345 342 347 346
221 222 222 232 246 246 266 293 269 298 283 266 262 276 309 315 308 316 318 325 333 330 327 338 348 353 355 355 353 351 353 353 355 349 349 349 352 354 356 355 356 357 354 349
220 231 229 228 244 261 267 270 306 301 288 297 299 315 324 318 320 326 324 326 320 327 331 340 349 354 356 356 356 353 355 357 358 357 2 9 11 13 13 13 12 8 5 1
218 216 212 227 245 260 275 291 305 304 288 303 315 329 325 322 327 325 319 323 307 319 332 341 347 353 353 356 356 356 358 1 3 10 18 20 18 17 17 13 11 11 12 12
229 216 214 230 246 260 275 289 295 304 296 306 316 321 324 333 330 320 326 324 315 324 330 339 347 351 352 355 358 1 1 4 8 19 19 20 18 16 14 13 14 13 14 15
242 217 217 228 241 258 268 288 286 288 302 314 321 325 336 341 333 321 329 329 325 329 335 345 351 354 353 357 1 4 5 4 8 15 18 16 15 15 15 17 19 20 21 24
238 232 233 245 251 263 296 280 293 307 325 311 324 321 334 338 330 325 330 335 333 333 340 349 354 353 353 355 1 5 7 8 8 10 12 14 14 16 18 19 20 24 28 31
230 242 249 256 261 272 272 304 291 303 335 317 326 325 332 342 335 336 330 333 339 342 346 350 351 351 352 356 360 4 8 9 11 10 7 9 14 15 18 19 21 25 32 34
241 255 251 259 260 261 205 267 292 306 337 319 323 330 329 342 341 340 334 342 351 344 339 345 349 348 349 353 360 3 8 10 11 12 10 5 8 11 15 19 21 23 28 35
247 242 242 245 255 268 287 280 293 304 318 318 324 334 332 333 336 340 342 340 344 343 337 347 349 348 349 350 355 2 6 10 10 13 13 12 8 4 8 15 19 23 26 31
240 232 233 239 258 264 278 274 289 301 314 319 326 336 330 332 334 338 342 330 334 339 345 348 351 349 349 352 353 357 2 8 10 11 12 12 14 12 6 9 16 22 28 31
243 241 249 256 261 262 267 275 292 300 314 319 326 332 335 335 333 338 342 326 322 332 340 344 348 350 350 354 356 355 360 4 7 10 10 10 12 13 13 9 13 18 24 29
244 240 243 246 258 263 263 279 287 298 308 318 323 333 336 338 334 339 344 329 310 321 331 336 346 348 353 354 356 355 359 2 4 6 8 8 8 11 13 9 14 15 21 25
245 237 243 245 243 256 270 277 287 295 306 317 320 335 336 337 337 337 341 341 328 322 331 332 337 344 349 353 356 357 2 0 2 3 5 7 8 8 9 5 15 21 22 26
243 232 238 242 243 253 266 273 281 294 308 312 323 334 335 332 335 337 339 337 340 339 334 331 333 339 346 351 355 356 0 1 1 0 360 4 8 8 9 8 16 29 29 28